Wind_Speed
36 39 41 44 47 50 51 51 51 50 49 48 48 47 46 45 44 43 42 42 41 40 39 39 38 38 38 39 40 40 41 42 43 44 45 47 48 49 50 52 53 55 57 58 60 61 62 63 64 65 66 68 70 72 73 73 73 72 72 71 69 69 68 67 66 65 64 64 64 65 66 66 67 69 70 72 73 75 76 75 75 75 76 76 77 78 79 80
37 40 42 45 48 50 51 51 51 50 49 49 48 46 45 44 42 42 41 41 41 40 39 38 38 37 37 38 39 40 40 41 43 44 46 47 48 50 51 53 55 56 58 59 60 61 62 63 64 66 68 70 71 71 70 69 68 67 66 65 63 62 61 60 60 60 60 61 62 63 64 66 67 69 71 73 74 77 77 75 75 76 77 78 79 79 80 81
37 41 43 45 47 49 50 50 50 49 49 47 45 44 43 42 41 41 41 41 41 40 39 39 38 37 38 38 39 39 40 42 43 45 46 47 49 50 52 54 56 57 58 59 60 61 62 64 66 68 69 68 68 66 65 64 62 60 58 57 57 56 56 57 57 58 59 60 62 63 65 66 68 70 72 74 76 78 78 77 78 79 79 80 80 81 82 83
37 41 43 45 46 47 48 48 47 47 45 43 41 40 40 39 39 39 40 40 40 39 39 38 38 38 38 39 40 41 42 43 45 46 47 48 49 51 53 55 56 58 59 59 60 62 64 67 67 67 65 64 62 60 58 56 54 54 53 53 54 54 55 56 57 58 59 60 61 63 64 65 67 68 71 74 76 78 77 77 79 80 81 81 82 82 83 84
36 41 43 44 45 45 46 45 44 43 41 39 38 37 37 37 37 38 38 38 38 38 38 37 38 38 39 40 41 42 43 44 46 47 47 49 51 53 54 55 57 58 58 60 62 64 66 65 64 62 59 57 54 52 51 50 50 51 52 53 54 54 55 56 56 57 58 58 58 59 60 62 63 66 69 71 74 75 74 75 77 78 79 80 81 82 83 84
35 40 42 43 45 44 43 43 42 41 40 39 38 38 37 37 37 37 37 37 37 37 37 37 38 39 40 41 42 44 44 45 47 47 49 50 52 53 55 55 56 57 59 62 63 64 62 60 57 54 51 49 47 47 47 48 49 50 51 51 51 52 52 52 52 52 53 53 54 55 56 59 61 64 66 69 72 70 70 72 73 74 76 77 79 80 81 83
36 37 41 43 42 41 41 41 41 41 40 39 39 38 37 37 37 37 37 37 37 37 37 38 39 40 41 42 43 44 45 46 47 48 50 51 52 53 54 55 57 59 61 61 60 58 55 52 49 47 45 45 45 46 46 47 47 47 46 46 46 46 47 47 48 49 50 51 52 53 56 58 61 63 65 68 70 68 68 70 71 72 74 76 77 78 80 82
37 35 40 42 39 39 40 40 41 40 40 39 38 38 37 37 37 37 36 36 36 37 38 38 40 41 42 43 43 44 45 46 48 49 50 51 52 53 54 56 58 59 58 56 53 50 47 45 43 43 44 44 43 42 41 41 41 41 41 42 44 44 45 46 47 49 50 51 52 54 57 60 63 63 64 68 69 68 69 70 72 73 75 76 77 79 81 82
37 36 37 38 36 36 38 40 40 41 40 39 37 37 36 36 35 35 36 36 37 37 38 39 40 41 42 42 43 44 45 47 48 49 49 50 52 54 56 57 56 54 52 49 46 43 41 41 41 41 40 38 37 36 35 36 37 39 41 42 44 44 44 46 48 49 51 52 53 54 58 63 65 65 65 68 70 70 71 72 73 75 76 77 79 80 82 83
35 37 37 36 34 33 34 36 38 39 39 38 36 35 35 34 34 34 35 36 37 38 38 39 40 41 41 42 43 44 45 46 47 48 49 51 53 54 54 53 50 47 44 41 39 38 38 38 36 34 33 31 31 32 33 35 37 39 42 44 45 45 45 47 49 51 52 53 53 54 60 66 68 67 68 69 71 71 72 72 74 75 76 78 79 80 81 82
31 35 37 36 34 32 31 32 34 36 37 37 36 36 35 34 34 35 35 36 37 37 38 39 39 40 41 42 43 44 45 46 47 48 51 52 52 51 48 46 42 39 37 36 36 35 33 30 29 28 28 29 30 32 34 36 38 40 43 46 48 48 47 48 51 53 54 55 54 56 62 70 73 72 71 71 71 71 72 73 74 76 77 77 78 79 80 81
30 31 34 36 35 34 33 32 31 32 33 34 35 35 35 34 35 35 36 36 36 36 37 38 39 39 40 41 42 43 44 45 48 50 50 49 47 44 41 38 35 33 32 31 30 28 26 25 26 26 27 29 30 33 35 37 40 42 44 48 53 54 52 51 53 56 58 59 58 60 65 73 77 78 76 75 74 74 74 75 76 77 78 78 79 80 81 81
31 29 29 32 33 34 34 33 31 30 30 31 32 32 32 32 33 33 33 33 34 35 36 37 37 38 39 40 41 42 44 46 47 47 45 43 40 37 34 32 30 29 28 26 24 23 23 24 25 26 27 29 31 34 37 39 41 46 48 50 55 59 62 59 58 61 63 64 65 66 71 76 82 83 81 79 78 78 78 78 79 79 79 80 81 81 82 82
33 30 27 26 28 30 31 31 30 30 30 30 29 29 30 31 31 31 31 31 32 34 34 35 36 37 38 39 41 43 44 44 43 41 39 36 33 30 29 28 27 25 23 22 22 22 22 23 25 26 28 31 34 37 40 42 45 49 53 56 58 61 68 68 63 64 67 69 71 74 77 81 84 86 85 83 82 81 80 81 81 81 81 81 81 81 81 81
34 33 30 26 24 25 27 28 29 29 29 28 28 29 29 30 30 30 30 31 32 33 34 34 35 36 37 39 41 42 41 39 37 35 32 29 27 26 25 24 23 21 21 21 22 22 23 24 26 28 31 33 37 42 45 47 49 52 56 62 64 63 68 74 70 68 71 74 77 80 83 85 87 88 88 86 84 84 83 83 83 83 83 82 82 81 81 81
34 34 33 30 27 24 24 25 26 26 26 25 26 27 28 28 29 30 31 31 32 32 32 32 33 35 37 38 38 37 35 33 31 28 26 25 24 23 22 21 20 20 20 21 22 24 25 27 29 32 34 36 40 44 49 52 55 58 60 64 69 68 68 74 75 72 75 80 82 86 87 88 90 90 90 88 86 86 85 85 85 85 85 84 83 82 82 82
32 33 33 32 30 28 26 24 23 23 23 22 23 23 23 24 26 27 28 29 29 29 30 32 34 35 35 34 33 31 29 27 24 23 22 23 21 20 20 19 19 19 20 21 23 25 27 30 32 35 37 40 42 45 50 55 58 62 65 67 72 74 72 75 77 74 77 83 85 89 91 91 93 94 93 91 88 88 87 86 86 86 86 85 83 82 81 81
30 32 32 32 31 30 29 26 24 23 22 20 20 20 20 21 22 24 25 26 27 29 31 33 33 32 30 29 28 25 22 21 20 20 20 20 18 18 18 18 19 19 21 23 25 28 30 33 37 39 42 45 47 49 51 56 59 62 66 68 71 76 77 78 79 75 76 83 86 89 93 94 95 96 94 92 91 90 89 88 87 87 86 85 83 82 81 80
28 30 31 31 31 31 30 27 24 22 20 19 18 19 19 21 22 23 25 26 28 30 31 30 29 27 26 24 21 19 18 18 18 18 18 17 16 17 17 18 20 21 23 26 28 31 35 39 42 44 47 50 52 54 57 60 63 66 69 70 71 75 78 80 82 79 78 83 87 90 94 96 96 96 95 93 92 91 90 89 89 88 86 85 83 81 80 79
25 28 30 31 31 30 29 27 24 21 20 19 18 19 20 22 23 25 26 28 29 28 27 25 24 23 21 18 16 15 16 16 16 15 15 15 15 17 18 20 23 25 27 30 33 37 40 43 45 47 50 52 55 58 61 64 68 71 73 74 74 75 77 80 82 83 83 84 87 90 94 97 98 97 96 95 94 92 92 91 90 89 87 85 83 81 80 78
22 26 28 29 30 30 28 27 25 23 21 20 21 21 23 24 25 26 27 27 25 23 21 20 19 17 15 14 13 14 14 13 12 13 13 14 16 19 21 23 26 29 32 35 38 41 43 46 48 50 51 53 56 60 64 67 71 75 77 78 78 77 78 80 83 85 86 86 88 91 94 99 100 99 98 97 96 94 93 92 90 88 86 84 82 80 79 78
19 23 25 27 28 29 28 27 26 25 24 24 24 24 25 26 27 26 24 21 19 18 17 16 14 12 11 11 11 12 11 10 10 11 13 14 18 22 24 27 30 33 36 39 41 44 46 47 49 51 52 54 57 60 65 69 73 76 79 81 83 81 79 79 82 86 89 89 89 91 95 99 100 100 100 99 97 95 93 92 89 87 84 82 80 78 77 76
17 20 22 25 26 27 28 27 27 27 26 26 26 26 26 25 23 20 17 15 15 14 12 10 9 9 9 9 9 9 8 8 9 11 13 16 19 23 27 30 33 35 38 41 43 45 47 49 50 51 53 54 57 60 64 69 73 77 80 83 85 86 83 82 83 86 92 94 93 92 95 100 102 101 102 100 98 95 93 91 88 86 83 81 79 77 76 75
16 17 19 21 22 24 25 25 26 26 26 26 25 23 21 18 15 13 12 12 11 9 7 6 7 8 8 7 7 7 7 8 10 12 15 18 22 26 30 33 35 37 39 42 45 47 49 50 52 52 54 55 57 60 63 67 72 76 80 84 86 87 87 87 87 88 93 96 97 95 96 100 103 102 102 101 98 95 92 90 88 84 82 79 77 76 75 75
14 15 15 16 16 17 18 19 20 20 20 19 17 14 11 9 9 9 9 7 5 4 4 5 6 6 6 5 5 6 7 9 12 15 18 21 24 28 31 34 37 39 40 43 46 48 51 53 53 54 55 57 59 62 64 67 71 75 79 83 86 87 87 89 92 93 95 98 100 99 99 101 104 104 104 102 99 96 93 90 87 83 79 77 76 75 74 74
13 13 12 12 11 12 12 12 12 12 10 9 7 6 5 6 6 6 3 1 1 3 4 4 4 4 4 4 6 8 10 12 14 18 20 23 25 28 31 35 38 41 43 45 48 50 53 54 55 56 57 59 62 64 66 68 71 74 78 83 86 87 88 90 95 98 99 101 103 104 104 105 107 106 106 105 101 98 94 90 86 81 77 75 74 73 72 72
13 12 11 11 10 9 9 8 7 6 4 3 3 3 4 3 3 1 2 2 2 4 4 2 3 3 3 5 8 11 13 17 19 21 23 25 27 29 32 35 38 42 45 47 50 52 55 56 57 59 60 62 64 65 67 69 72 75 79 84 86 87 88 92 97 100 102 103 105 106 106 108 111 111 110 108 105 101 96 91 86 81 77 74 73 72 72 71
14 13 13 12 11 10 9 7 6 5 4 3 3 2 2 2 3 5 5 4 4 4 3 2 2 3 5 8 11 14 17 20 21 23 25 27 29 32 34 36 38 42 45 48 51 53 56 58 59 61 63 65 66 67 68 70 73 77 81 85 87 87 89 94 97 101 103 104 106 109 109 109 112 115 115 113 110 105 100 94 89 83 79 76 75 73 71 70
15 15 14 13 11 10 8 7 6 6 5 4 4 5 6 7 7 7 6 6 6 4 4 4 4 5 8 11 14 17 20 21 23 25 28 30 32 34 36 38 41 43 46 48 52 55 57 58 60 63 65 68 68 69 70 72 75 79 82 85 86 87 90 94 97 100 104 107 109 112 115 114 114 117 118 117 114 110 105 99 93 88 83 80 77 74 71 69
15 14 13 12 11 9 8 8 7 6 6 7 8 9 9 9 9 8 7 7 7 5 5 5 5 8 11 15 17 19 21 22 24 26 29 31 33 36 40 44 47 50 51 53 54 56 57 58 60 63 66 69 71 72 73 75 77 80 81 81 82 85 89 93 98 102 106 110 113 116 120 121 120 119 120 120 119 115 110 104 97 91 86 81 78 76 74 72
14 13 12 11 10 9 8 8 7 8 10 11 12 11 10 10 9 8 8 8 8 7 6 7 9 11 14 16 18 19 21 22 24 26 29 32 36 40 44 47 49 51 53 53 52 53 55 58 60 63 66 69 73 75 76 77 78 80 81 81 80 82 87 93 99 106 112 115 117 119 121 123 124 123 123 124 123 119 114 107 100 93 87 83 80 77 76 75
14 13 12 11 10 9 8 9 11 12 13 13 13 12 11 10 9 9 9 9 8 8 8 10 11 13 15 17 18 19 21 22 25 28 31 34 37 39 40 41 43 44 47 49 50 52 55 58 61 63 66 70 73 76 77 79 80 81 83 83 84 85 90 95 101 109 116 119 120 121 122 123 125 126 127 127 126 122 117 111 104 98 92 88 85 83 82 81
13 12 11 10 10 10 11 13 14 15 15 14 14 13 11 10 10 10 10 9 9 9 10 11 12 14 15 17 18 20 21 23 25 28 31 33 35 36 38 41 42 44 47 50 51 52 54 57 60 63 67 72 76 78 79 80 82 84 86 89 93 96 99 103 106 110 117 121 122 123 124 125 126 128 129 129 129 126 122 116 110 104 99 96 93 90 88 86
12 11 10 10 12 13 15 16 16 15 15 15 13 12 11 11 11 11 11 10 10 11 11 12 13 14 16 18 19 20 22 23 25 27 30 32 34 37 40 43 45 46 48 51 53 53 54 57 61 66 70 75 79 82 84 85 86 88 91 94 98 102 105 108 111 114 119 123 124 124 126 128 128 129 130 131 132 131 127 122 116 111 105 100 97 93 90 88
11 11 11 13 15 17 17 16 16 16 15 14 13 12 11 11 11 11 11 11 11 11 11 12 13 15 17 18 20 21 22 23 25 27 29 32 35 37 40 43 45 46 48 50 53 55 57 60 64 69 74 77 81 84 86 88 89 91 93 96 100 103 105 108 112 114 118 124 127 127 127 129 130 130 132 133 134 134 132 128 122 115 108 102 97 93 90 86
11 12 14 16 18 18 18 17 16 16 14 13 13 12 11 11 12 12 11 11 11 11 11 12 14 16 18 19 20 22 23 23 24 27 30 32 35 38 41 43 45 47 48 49 52 56 60 63 67 71 75 78 81 84 86 89 91 92 95 97 101 105 107 109 111 112 115 122 128 129 129 130 131 133 134 135 136 137 137 132 126 118 109 102 97 93 90 87
13 15 17 18 19 19 18 17 16 15 14 12 12 12 12 11 11 11 11 11 10 10 11 13 14 16 18 19 21 22 23 23 25 27 30 33 36 39 41 43 46 47 49 50 53 57 61 65 68 72 75 78 81 84 87 90 92 94 96 98 101 105 109 113 115 116 117 121 126 130 131 131 133 135 136 137 138 140 139 135 128 120 111 103 98 95 93 90
16 18 19 20 20 19 18 17 16 15 14 13 12 12 12 11 11 10 10 10 10 10 11 13 14 16 18 20 21 22 23 24 26 28 31 34 37 39 42 44 46 48 50 52 54 58 61 65 68 71 75 79 82 85 87 90 93 95 97 100 104 107 111 116 120 122 122 123 126 129 131 132 134 136 138 139 141 141 141 138 131 124 116 108 102 98 95 92
19 20 20 20 20 19 17 16 15 14 14 14 13 12 11 11 10 9 9 9 9 10 12 13 15 17 19 20 21 22 24 25 27 29 32 35 38 41 43 46 47 49 51 53 56 59 62 65 69 72 75 79 82 84 87 89 91 94 97 101 105 109 112 117 121 124 125 127 129 131 132 132 134 137 140 142 143 143 144 142 136 129 121 113 106 100 96 93
20 21 21 20 19 18 16 15 15 14 14 14 13 11 10 10 9 9 8 8 9 10 12 14 15 17 18 19 21 22 24 26 28 30 32 35 39 42 44 47 48 50 52 54 56 58 62 65 69 72 75 78 81 84 85 87 90 93 97 101 104 108 112 114 118 122 125 128 131 134 133 133 134 138 141 144 144 144 145 144 140 133 124 115 108 102 98 94
21 21 21 19 17 16 14 14 14 14 14 14 12 11 10 9 8 8 7 7 8 10 12 14 15 16 17 19 21 23 24 26 27 29 32 36 39 42 45 47 49 51 53 55 56 58 61 65 69 72 74 77 81 84 86 88 91 95 98 102 105 109 112 114 116 120 124 126 130 134 135 135 136 139 141 144 145 145 145 145 142 136 127 118 110 105 101 97
21 21 20 19 17 16 15 14 14 14 14 13 11 10 9 8 7 6 6 6 7 9 12 14 15 16 17 19 21 23 25 26 27 29 33 36 39 42 45 48 50 53 55 57 58 59 60 64 68 72 75 78 81 83 86 89 92 95 98 102 106 109 113 117 119 121 123 125 126 130 134 136 137 139 141 143 145 146 145 145 143 139 131 123 114 108 103 100
20 19 18 17 15 15 15 14 14 14 13 12 10 9 8 6 6 5 4 5 6 9 12 14 15 15 17 19 22 24 25 26 28 30 33 37 40 43 46 49 51 54 57 60 62 62 63 64 66 69 73 76 79 82 86 90 93 96 99 102 106 110 114 118 121 123 124 125 126 128 131 134 135 138 140 142 145 146 146 146 145 142 135 127 118 111 106 102
20 19 17 15 14 13 13 14 14 13 12 11 9 8 7 5 5 4 4 5 6 9 12 13 14 15 17 20 22 24 25 26 28 31 34 37 40 43 46 49 53 56 60 63 65 67 68 68 70 70 71 74 77 81 86 90 94 97 100 103 106 109 112 116 120 123 124 127 128 127 129 131 133 136 139 141 143 145 146 146 146 145 140 132 124 115 109 104
19 18 17 14 13 13 12 13 14 12 11 10 8 7 6 4 3 3 4 5 6 9 11 13 14 15 16 19 22 24 25 26 28 32 35 38 40 43 47 50 53 57 61 64 67 70 72 74 75 77 78 80 83 86 89 92 96 98 101 104 105 107 111 114 118 122 124 126 129 129 130 130 131 133 136 139 142 144 146 146 147 147 144 139 131 121 113 107
18 17 16 14 13 13 13 13 13 11 10 9 8 6 5 3 2 3 4 4 6 8 10 12 13 14 16 18 21 23 25 27 29 33 36 38 41 44 47 50 54 57 60 64 67 70 73 75 78 81 83 86 88 90 92 94 97 99 101 103 105 107 110 113 117 122 124 124 126 129 130 130 130 132 135 139 142 145 147 148 148 148 147 143 136 126 117 110
18 16 15 14 13 13 13 13 12 11 10 8 7 6 4 2 1 2 4 4 5 8 10 12 13 14 15 17 20 22 24 27 30 33 35 38 40 44 47 50 53 57 60 63 65 68 71 74 78 81 83 85 87 90 92 94 96 98 100 102 105 107 109 113 116 121 124 124 124 126 128 129 131 133 135 138 142 146 149 150 150 149 148 144 138 130 121 114
17 16 15 14 14 13 13 13 12 11 9 8 7 6 5 3 1 2 3 4 5 7 10 11 13 14 15 17 19 22 24 27 30 32 35 37 40 44 47 50 53 55 59 62 64 67 69 72 76 79 82 85 87 89 91 93 95 97 100 102 105 107 109 112 115 119 123 126 127 127 128 130 132 133 135 138 143 148 150 151 151 149 147 146 141 135 127 118
16 15 14 13 13 13 13 12 12 11 10 8 8 7 5 4 2 3 4 4 5 7 9 11 13 14 16 17 20 22 25 28 30 32 35 38 41 44 47 50 52 55 58 61 63 66 68 71 74 77 81 83 86 88 90 92 94 96 99 101 104 107 109 111 114 117 122 126 128 128 129 131 133 135 136 139 143 147 149 151 151 150 148 147 145 140 132 124
15 14 13 13 13 13 12 12 12 11 11 10 8 7 6 5 4 4 4 4 5 8 10 12 14 15 16 17 20 23 26 28 30 33 36 39 42 45 47 49 51 54 57 60 62 65 67 70 72 76 79 82 84 87 89 92 94 95 97 100 103 106 108 110 114 118 121 125 127 128 128 129 132 136 138 140 142 144 147 149 152 152 151 149 147 143 137 129
14 13 12 12 12 12 11 11 11 11 12 11 10 8 7 7 6 5 5 5 6 8 10 12 14 15 16 18 20 23 26 28 31 33 36 39 42 44 47 49 51 54 56 59 62 65 67 69 72 74 77 80 83 86 88 91 93 94 96 99 101 104 107 110 114 118 121 124 127 129 129 129 131 135 138 140 141 143 146 149 152 153 153 150 148 146 141 133
13 12 12 12 11 11 10 10 10 11 12 12 11 10 9 8 7 6 6 6 6 8 10 12 14 16 17 19 21 23 26 28 31 33 36 39 42 44 47 49 51 54 56 59 61 64 66 69 71 73 76 79 82 85 88 90 92 94 96 98 101 103 107 110 113 116 120 124 128 130 130 129 130 133 137 139 141 144 147 149 152 154 154 151 149 146 143 138
Wind_Direction
204 205 204 205 207 211 215 217 221 224 226 228 229 231 233 237 239 243 247 251 254 257 260 261 264 267 270 273 275 277 280 281 282 284 286 287 289 291 293 294 295 296 296 297 298 298 298 299 299 300 300 300 300 300 300 300 300 300 300 300 300 300 299 299 299 298 298 298 298 298 298 298 297 296 295 293 292 290 289 289 290 289 288 287 286 285 284 283
207 208 208 208 208 212 216 218 221 224 227 229 230 232 234 237 240 243 246 250 253 256 258 261 265 268 271 274 277 281 283 285 287 288 289 290 292 293 295 296 296 297 297 298 299 299 300 301 301 302 302 302 301 301 301 301 301 302 302 302 301 301 301 301 301 302 302 302 302 302 301 301 300 299 297 295 294 292 292 293 293 291 290 288 287 286 285 284
208 211 211 212 212 213 217 219 222 224 227 231 233 235 237 239 241 243 246 249 252 255 258 262 265 268 272 276 280 283 286 288 290 292 292 293 294 295 296 296 297 298 299 300 300 301 302 302 303 303 303 303 303 303 303 304 304 304 304 304 304 304 304 305 306 307 307 307 307 306 305 304 302 300 298 296 295 294 295 296 295 293 292 291 290 288 287 285
208 212 214 215 217 217 219 221 223 225 229 234 237 238 241 243 244 245 247 250 253 256 260 263 266 270 274 278 281 284 287 290 293 294 295 295 296 296 297 297 298 299 300 301 302 302 303 304 304 305 305 305 306 306 306 307 307 307 307 307 308 310 310 311 312 312 311 310 310 309 307 304 302 299 296 294 293 294 297 296 293 292 292 291 289 287 286 285
208 212 216 216 219 222 222 225 226 229 232 235 239 241 242 245 247 249 251 254 256 259 262 265 268 272 276 279 282 285 288 292 294 295 296 296 297 297 298 299 300 301 302 302 303 304 305 306 307 307 308 308 309 309 310 311 311 312 313 314 315 316 316 316 316 315 313 312 310 308 306 303 300 296 294 293 292 295 295 293 291 291 290 289 287 286 284 283
212 212 218 218 220 223 224 227 230 232 236 238 240 242 244 247 250 252 255 257 259 261 263 266 270 273 276 279 282 286 290 292 294 295 297 297 298 299 300 301 302 302 303 304 306 307 308 308 309 309 310 310 311 313 314 316 318 319 319 320 319 319 318 318 317 316 314 313 311 310 307 304 301 297 296 294 294 296 295 293 293 292 290 288 287 285 284 283
217 213 216 221 221 223 224 227 231 234 236 239 241 243 246 248 251 254 256 258 260 262 264 267 270 273 276 280 284 288 291 293 295 296 298 299 299 300 302 303 304 305 306 307 308 309 310 310 311 311 312 315 317 320 322 323 323 323 322 321 320 320 320 320 319 319 318 317 317 316 313 309 304 302 301 299 299 300 298 297 296 293 292 290 288 286 284 283
219 215 216 223 224 223 225 226 230 233 236 239 241 244 246 248 251 253 255 257 259 262 265 268 271 275 278 283 286 289 292 294 296 297 298 300 301 302 304 305 306 307 308 309 310 311 312 313 315 318 321 324 327 328 328 326 325 324 324 324 323 323 325 325 325 326 326 326 326 324 321 315 309 307 307 304 304 304 303 301 299 297 295 292 290 288 286 284
218 220 220 225 227 224 224 227 229 233 237 240 243 245 247 248 250 253 255 257 260 263 266 270 274 277 281 286 288 291 293 294 296 298 300 301 303 304 306 307 309 310 311 312 313 314 317 320 324 328 330 331 331 330 329 328 328 329 329 330 330 330 331 332 333 334 335 335 335 333 327 319 314 313 311 309 310 310 308 307 304 301 299 296 294 292 290 289
215 221 224 227 230 229 225 226 228 232 236 240 242 245 248 251 253 255 257 259 262 266 270 273 277 281 285 288 290 292 293 295 297 300 302 304 305 307 308 310 311 312 313 315 317 321 326 330 332 333 333 332 331 331 332 333 334 335 337 336 336 337 338 340 341 341 341 341 341 339 332 323 319 317 316 317 318 316 314 311 308 304 302 299 298 296 294 292
217 218 224 228 232 234 233 231 229 231 235 239 242 246 250 254 256 258 260 262 265 269 272 276 280 283 287 289 291 293 294 297 300 302 304 306 308 310 311 313 314 315 318 322 327 331 333 334 333 333 333 333 334 336 337 339 340 341 342 343 342 342 342 344 345 345 345 345 344 343 337 327 323 322 324 325 323 320 317 314 310 307 305 303 301 298 295 293
222 219 221 227 232 235 237 238 236 235 237 239 243 248 252 256 258 259 261 264 268 271 275 279 283 286 288 290 292 294 297 300 303 305 307 309 311 312 313 315 317 322 327 331 333 334 333 331 332 333 334 336 338 340 341 343 344 344 346 348 348 347 346 347 348 347 348 348 346 345 339 330 327 329 330 329 326 323 320 316 313 310 308 305 302 300 297 296
224 226 222 224 229 233 237 240 241 242 243 244 247 251 255 258 260 262 265 268 272 276 280 283 285 287 289 291 294 297 301 303 305 308 310 312 313 314 316 320 325 330 333 333 331 329 329 330 333 335 337 339 341 343 344 346 347 349 350 351 352 352 350 351 352 351 351 350 347 345 341 334 332 333 333 331 328 325 322 318 315 313 310 307 304 302 300 298
222 229 230 227 227 230 235 240 243 245 248 251 254 258 261 263 266 269 272 275 277 280 282 284 286 288 291 294 298 301 304 306 308 310 312 313 315 318 323 328 332 333 331 328 326 326 328 332 335 337 340 343 346 348 350 351 352 354 355 355 356 355 354 354 355 354 353 351 348 346 343 338 337 336 334 332 330 326 323 320 317 314 311 308 305 303 300 298
220 226 232 236 234 232 234 238 243 246 250 255 259 262 264 266 269 273 276 277 278 280 281 283 287 291 295 299 302 305 307 309 311 313 314 317 321 326 331 332 331 328 325 326 329 332 335 337 340 343 345 348 352 354 355 355 356 357 359 359 358 357 357 356 356 357 355 353 351 349 345 341 340 339 336 333 330 327 324 321 318 315 312 309 307 304 301 299
219 223 229 236 240 241 240 241 243 247 251 254 256 259 261 265 268 271 273 275 276 279 282 286 291 296 300 304 306 309 311 312 314 315 318 323 329 331 331 328 325 324 327 332 336 340 342 344 346 349 351 352 355 358 1 1 1 1 1 2 0 358 358 357 357 358 357 355 353 351 346 343 343 341 337 334 331 328 325 322 319 316 314 311 308 306 303 300
218 222 226 232 238 243 246 247 248 252 254 253 252 255 260 263 265 268 270 273 277 281 287 293 297 301 305 308 310 311 313 315 317 320 326 332 333 329 327 326 327 330 334 338 342 345 347 349 352 353 354 355 356 359 3 5 5 5 4 3 2 358 357 358 357 359 358 356 355 352 346 345 346 342 339 336 332 329 326 323 320 317 314 312 309 307 304 302
216 220 225 230 235 241 246 249 252 254 255 254 253 256 259 262 264 267 271 276 283 289 295 300 304 307 310 310 312 314 315 318 323 330 334 333 326 324 326 328 333 338 342 346 349 351 353 355 357 358 358 359 360 0 3 5 5 4 4 3 2 359 357 357 357 358 359 356 355 352 347 346 347 343 340 337 333 330 327 324 322 319 316 313 311 309 306 304
214 218 224 229 233 239 244 248 251 253 254 256 258 259 262 264 268 273 278 285 292 298 303 307 309 310 311 313 315 316 320 328 334 336 332 324 320 325 331 338 344 349 352 354 355 357 359 1 2 3 4 4 5 5 6 7 6 5 4 2 2 0 357 356 356 355 358 357 355 353 347 346 348 345 341 338 335 332 329 326 323 321 318 316 313 311 308 306
212 216 221 226 231 236 241 245 249 253 257 261 265 266 268 271 276 282 288 295 300 304 308 309 310 312 314 316 318 323 332 338 336 329 324 321 327 337 346 352 356 358 359 0 2 4 5 6 6 6 7 7 8 9 10 11 10 8 6 4 2 2 359 356 355 354 355 357 356 354 348 346 348 346 342 340 336 334 331 328 326 323 321 318 315 313 310 308
210 214 218 223 228 232 237 242 247 252 257 262 266 268 271 276 283 289 295 301 305 307 308 309 312 315 318 321 329 337 341 335 327 325 328 333 344 352 356 359 3 5 6 6 7 7 8 8 7 7 8 10 12 13 13 14 13 11 9 7 3 3 1 358 356 353 353 356 357 355 350 347 349 347 344 342 339 336 334 331 328 325 323 320 317 315 313 310
205 211 216 221 226 230 235 239 245 250 255 260 264 268 273 280 288 294 300 304 305 305 308 312 316 319 325 333 342 344 338 330 331 338 343 348 355 0 4 7 9 11 11 10 9 9 9 9 9 10 11 13 14 15 15 14 13 11 9 8 5 3 3 0 357 353 352 355 357 357 352 348 349 348 345 344 341 339 336 333 330 327 325 322 319 317 314 312
198 206 213 219 224 229 233 238 243 248 253 258 263 269 277 284 292 298 302 302 302 307 312 318 323 333 342 346 347 343 336 335 340 345 349 353 359 5 10 13 13 13 14 13 12 11 11 11 11 12 13 14 14 15 16 14 12 10 8 7 5 3 3 1 359 355 353 355 356 358 355 350 350 349 347 346 343 341 338 335 333 330 327 324 322 319 317 314
191 198 206 214 220 226 232 237 243 248 253 259 266 273 280 288 295 298 298 300 306 313 318 327 342 352 354 348 339 339 343 346 349 352 356 1 7 12 15 17 16 16 16 15 14 12 11 12 12 13 13 13 14 14 15 14 11 9 7 6 5 4 3 1 360 357 355 356 356 357 357 352 351 350 348 347 345 343 340 338 335 332 329 327 324 321 319 316
185 190 198 205 213 221 228 235 241 246 252 259 266 274 283 290 292 293 296 303 313 326 341 359 4 359 354 347 341 350 358 358 358 1 5 10 14 18 19 20 20 19 18 17 16 14 13 14 13 13 13 12 12 13 13 14 12 9 7 6 4 4 3 2 0 358 356 357 357 356 357 355 352 352 350 349 348 345 343 340 338 335 331 328 325 323 320 318
176 180 185 191 198 205 213 222 229 237 244 252 263 272 279 284 285 289 290 286 357 17 26 21 8 357 356 3 1 5 6 3 6 10 13 15 16 18 20 21 22 21 20 18 17 16 14 14 14 13 12 12 12 12 12 13 13 11 8 6 5 4 4 3 1 358 356 358 358 357 358 356 354 354 353 351 350 348 346 343 340 337 334 330 327 325 322 319
162 163 164 166 169 174 182 190 200 207 213 222 234 250 263 271 264 212 147 131 54 48 58 31 6 13 15 17 15 14 14 13 17 19 17 16 14 15 18 20 23 23 21 19 18 17 15 14 14 12 12 12 11 11 12 13 14 13 9 7 6 5 6 4 2 359 357 358 359 358 358 358 356 355 355 354 352 350 348 345 343 340 336 333 330 328 325 323
148 147 147 148 152 157 163 166 169 167 170 183 197 209 193 158 143 131 122 105 79 76 93 77 52 47 32 25 22 20 20 20 22 20 17 16 15 14 15 17 19 22 23 20 17 17 15 13 13 13 12 11 11 10 11 13 14 14 11 9 8 7 7 6 3 360 358 358 0 359 359 359 358 357 356 356 354 352 350 348 345 343 340 337 334 331 328 325
140 140 141 145 149 151 151 149 153 157 162 165 155 143 137 129 119 112 108 106 105 112 111 94 70 46 34 28 25 23 22 23 23 22 21 21 20 18 16 14 15 18 21 21 17 15 14 13 12 13 12 11 11 11 11 13 14 14 12 10 9 9 8 7 4 1 359 360 2 1 360 360 360 359 358 357 356 354 353 351 348 346 343 340 337 334 331 328
137 138 142 145 144 142 142 146 153 154 149 141 134 130 125 115 104 103 113 119 119 119 107 86 56 41 36 32 30 26 26 28 29 28 27 26 24 22 19 15 14 14 16 19 18 14 12 12 11 12 13 12 11 11 12 12 13 13 12 11 11 11 9 9 7 4 1 2 3 3 1 360 0 0 359 359 358 356 355 353 350 348 345 342 339 337 335 332
135 138 139 138 137 139 144 148 148 142 135 131 127 122 113 107 109 118 126 124 117 108 90 68 50 42 39 35 32 28 28 30 30 28 27 26 24 23 21 17 14 12 12 14 16 14 11 12 11 12 13 13 13 13 12 12 13 12 11 10 12 12 11 11 11 8 4 3 4 3 2 1 0 1 1 0 360 358 356 354 352 349 347 344 342 340 338 336
134 136 135 136 138 142 145 143 137 132 128 125 120 115 112 119 131 132 128 121 110 94 74 59 49 43 38 35 32 28 27 28 29 28 27 26 24 22 21 19 16 13 10 10 13 14 11 10 11 11 13 14 15 14 13 13 12 12 11 9 9 10 11 11 12 11 7 5 5 4 3 1 1 1 2 1 1 360 358 356 354 351 349 347 346 344 343 341
136 136 137 141 143 141 138 133 130 128 124 120 116 117 123 134 139 131 122 114 98 82 68 58 50 42 37 34 31 28 27 28 29 30 28 26 23 21 19 17 15 13 11 9 10 13 12 11 11 12 13 15 15 15 15 14 13 12 11 10 9 9 9 9 10 11 8 5 6 5 3 2 1 2 2 2 2 1 359 358 356 354 352 351 349 347 345 343
138 140 141 141 138 134 131 129 129 126 119 116 118 127 136 138 133 124 113 102 88 77 67 57 48 41 37 34 31 28 27 28 29 29 26 23 21 19 17 15 13 12 11 8 7 9 12 12 12 13 14 15 15 15 15 15 14 13 12 11 10 9 9 8 9 10 9 5 5 6 4 3 2 2 2 3 3 2 1 360 358 357 355 353 351 349 347 344
142 142 138 135 133 131 130 129 126 120 117 122 131 138 139 135 126 116 104 94 84 75 65 54 45 40 36 33 30 28 28 28 27 26 24 21 20 18 15 13 13 12 12 10 7 7 10 12 12 13 14 15 15 15 15 15 14 14 12 11 10 9 9 9 8 9 9 6 4 5 6 4 2 2 2 3 4 3 3 2 0 358 356 354 352 350 347 345
143 139 135 133 132 132 131 126 120 117 123 134 140 140 138 130 121 111 100 90 82 72 61 51 44 39 36 32 29 28 28 28 26 24 21 20 18 16 14 13 13 12 12 11 9 8 9 11 12 13 13 14 14 14 14 14 14 14 12 11 10 8 7 7 8 8 9 8 5 5 6 5 3 2 3 4 4 5 4 3 1 359 357 355 353 350 348 346
139 136 134 134 133 132 128 123 122 127 135 142 142 139 135 127 116 105 94 86 78 69 58 50 44 39 35 32 30 28 28 26 24 21 19 18 16 15 14 13 12 12 11 11 11 9 9 11 12 12 12 12 13 13 13 12 12 12 11 9 9 8 6 5 6 7 8 8 7 6 6 6 4 3 3 3 5 5 5 4 2 0 358 356 354 352 350 348
138 135 135 134 132 129 126 126 130 137 142 144 143 140 134 123 111 99 90 83 76 66 55 47 41 37 34 31 29 27 25 24 22 20 18 16 15 14 13 13 12 11 11 11 12 11 10 10 11 12 11 11 11 12 12 11 10 9 9 8 8 8 7 5 5 6 7 7 7 7 7 7 5 4 3 3 5 5 5 4 3 1 360 358 356 354 352 350
137 136 136 135 131 128 130 134 139 144 146 144 142 140 132 118 106 95 87 83 75 62 51 44 38 35 32 29 26 23 22 21 19 18 16 15 14 13 12 12 11 10 11 12 12 12 11 11 11 11 11 11 10 11 11 10 9 9 9 8 8 7 8 6 5 5 6 6 6 7 8 8 7 5 4 4 4 5 5 5 4 3 1 360 358 356 354 351
138 137 135 132 130 131 136 142 146 149 149 144 141 138 128 115 103 93 87 82 72 57 48 42 36 32 29 26 23 20 19 18 17 16 15 14 13 12 11 11 10 10 10 11 13 13 12 11 10 10 10 10 9 9 10 9 9 9 9 9 8 8 8 8 6 4 6 6 6 6 8 8 8 6 5 4 4 5 5 5 5 4 3 1 359 357 355 353
141 138 133 132 135 138 142 148 152 152 150 146 143 137 125 113 100 90 86 78 66 54 45 40 34 30 26 23 20 18 16 16 16 15 13 13 13 12 10 9 9 8 9 10 12 13 13 12 10 10 10 10 9 8 8 9 8 8 9 8 8 7 7 8 7 6 6 7 7 6 7 9 9 8 7 5 4 4 5 5 5 5 4 3 1 359 357 355
141 137 135 137 142 146 150 154 156 155 152 149 143 135 124 112 98 87 81 71 60 51 43 36 30 26 24 21 18 16 16 15 15 14 13 13 12 11 9 8 8 7 7 8 9 12 13 13 11 10 9 9 9 8 7 8 8 7 7 8 7 7 6 6 7 7 6 7 8 7 7 9 9 9 8 6 5 5 5 5 6 5 5 4 3 1 359 357
139 137 137 141 147 151 156 158 159 159 156 151 145 135 125 110 93 80 73 65 56 46 39 31 26 23 22 20 18 16 16 16 15 14 14 13 12 10 8 8 7 6 6 6 6 8 10 12 12 11 10 8 8 8 7 7 7 7 7 7 7 6 6 6 6 7 6 6 8 8 8 9 10 9 8 7 6 5 5 5 6 6 6 5 4 3 1 360
141 140 142 147 153 159 162 162 162 162 159 155 148 139 128 108 87 72 66 63 54 42 33 26 21 20 20 19 18 17 17 17 16 14 14 13 11 9 8 7 7 6 5 5 4 5 6 8 9 9 10 9 8 8 8 7 7 7 7 7 7 6 6 5 6 7 6 5 6 8 9 10 10 10 9 8 7 5 5 5 6 7 7 6 6 5 3 2
144 144 148 154 160 167 170 168 166 166 163 159 154 147 137 116 93 69 60 60 51 38 28 21 18 17 18 18 18 17 17 16 16 15 13 12 10 9 8 7 6 5 4 4 3 3 3 4 5 6 6 7 7 8 8 8 7 7 6 6 6 5 5 5 6 7 7 6 6 7 8 9 10 11 10 9 7 6 5 6 7 7 7 7 6 6 4 3
148 149 154 160 167 173 174 172 172 171 168 165 162 159 152 134 103 64 53 51 43 30 22 17 13 13 14 15 15 15 14 14 14 14 12 11 9 8 7 6 5 4 3 3 3 2 1 1 2 3 4 5 5 5 6 7 6 6 5 5 5 5 5 5 5 6 8 8 7 6 7 8 10 11 11 10 8 7 6 6 7 7 8 8 7 7 6 4
154 156 160 166 173 178 178 179 180 177 173 174 176 177 176 170 126 43 37 37 28 21 15 11 8 8 9 10 10 11 11 12 12 12 10 9 8 7 6 5 3 2 2 2 2 2 1 360 0 1 2 3 4 4 4 5 5 5 4 4 4 5 5 5 5 6 7 8 8 7 7 7 9 11 11 11 10 9 7 7 7 7 8 8 8 8 7 6
159 162 166 171 177 181 184 186 187 184 183 186 191 195 200 209 239 360 13 17 12 8 7 4 2 1 2 2 4 5 7 9 9 8 8 7 6 5 4 3 2 1 1 1 1 1 1 360 359 360 0 1 2 3 3 3 4 4 3 3 3 4 5 5 5 5 6 7 8 8 7 7 8 10 11 11 11 10 9 8 7 7 8 8 9 8 8 7
164 167 172 177 181 185 189 193 194 193 195 200 207 211 219 234 266 327 348 353 355 357 359 358 356 355 355 355 357 0 3 6 6 5 4 3 3 2 2 1 0 360 360 0 0 0 0 360 359 359 359 360 1 1 2 2 3 3 3 2 2 3 4 4 4 5 5 6 6 7 7 7 7 9 10 11 11 11 10 9 8 7 8 8 9 9 9 8
170 175 179 184 188 191 194 198 200 203 207 214 221 225 232 250 271 305 324 330 339 347 352 353 351 349 349 350 353 356 360 2 2 1 1 0 360 359 359 359 358 358 358 359 359 359 359 359 359 358 358 358 359 360 0 1 2 2 2 2 1 2 3 3 3 4 5 6 6 7 7 7 7 8 10 11 11 11 10 10 9 8 7 8 9 9 9 9
177 182 187 191 194 196 198 203 207 212 217 222 228 231 240 253 268 290 304 311 325 338 345 346 344 343 345 347 351 354 357 359 359 358 358 358 357 357 357 357 356 357 357 357 357 357 357 358 358 358 357 357 358 359 359 0 1 1 1 2 1 1 1 2 3 4 4 5 6 7 7 8 8 8 9 10 10 11 11 10 10 9 8 8 8 9 9 9
186 191 196 199 201 200 202 208 215 221 224 226 230 233 242 253 264 281 295 301 313 329 337 338 338 338 341 345 349 353 355 356 356 356 356 356 356 356 355 355 355 355 355 356 356 356 355 356 356 356 357 357 357 357 358 359 359 360 0 1 1 0 1 2 3 3 4 5 6 7 7 8 8 8 9 9 10 11 11 10 10 9 8 8 8 9 10 10
Height
10697 10700 10703 10706 10709 10711 10714 10717 10719 10723 10726 10730 10733 10736 10738 10741 10743 10746 10747 10748 10750 10751 10752 10752 10751 10751 10751 10750 10749 10749 10748 10747 10746 10745 10744 10742 10741 10739 10738 10736 10734 10732 10729 10727 10724 10721 10718 10715 10712 10708 10704 10700 10696 10692 10687 10683 10678 10673 10668 10663 10659 10654 10649 10645 10641 10636 10632 10627 10622 10617 10612 10607 10602 10597 10592 10586 10580 10574 10571 10570 10570 10567 10562 10558 10554 10551 10547 10543
10696 10699 10701 10704 10706 10709 10712 10715 10718 10721 10724 10727 10731 10734 10737 10740 10742 10744 10745 10746 10747 10748 10748 10748 10748 10748 10748 10747 10747 10746 10745 10744 10743 10742 10741 10739 10738 10736 10734 10731 10729 10727 10724 10722 10719 10716 10713 10710 10706 10703 10698 10694 10689 10685 10680 10676 10671 10666 10661 10656 10652 10647 10642 10639 10635 10630 10626 10621 10616 10611 10605 10600 10594 10588 10582 10576 10569 10563 10561 10561 10560 10556 10551 10548 10544 10540 10537 10533
10695 10697 10700 10702 10704 10707 10710 10713 10716 10720 10722 10725 10729 10732 10735 10738 10741 10742 10743 10743 10744 10745 10745 10745 10745 10745 10745 10745 10744 10743 10742 10741 10740 10739 10737 10736 10734 10732 10730 10727 10725 10722 10720 10717 10714 10711 10708 10704 10701 10696 10692 10687 10683 10678 10673 10669 10664 10660 10655 10650 10645 10641 10636 10632 10628 10624 10619 10613 10609 10603 10598 10592 10585 10579 10572 10565 10559 10553 10552 10552 10548 10543 10540 10536 10533 10529 10525 10520
10693 10696 10698 10701 10703 10706 10709 10711 10715 10718 10721 10724 10728 10731 10734 10736 10738 10739 10740 10740 10741 10741 10742 10742 10743 10743 10742 10742 10741 10740 10739 10738 10737 10736 10734 10733 10730 10728 10725 10723 10721 10718 10715 10712 10709 10706 10702 10698 10694 10689 10685 10680 10676 10671 10666 10662 10657 10652 10648 10643 10639 10634 10630 10626 10622 10618 10612 10607 10602 10597 10591 10584 10577 10570 10562 10556 10550 10546 10546 10542 10536 10531 10528 10525 10521 10516 10512 10508
10692 10694 10696 10699 10702 10704 10708 10711 10714 10717 10721 10724 10727 10730 10732 10733 10735 10736 10737 10737 10738 10739 10739 10740 10740 10740 10739 10738 10738 10737 10736 10735 10734 10733 10731 10729 10726 10724 10722 10719 10717 10714 10711 10708 10704 10700 10696 10691 10687 10683 10678 10674 10669 10665 10660 10656 10651 10645 10641 10637 10633 10629 10624 10620 10616 10612 10607 10602 10597 10591 10584 10577 10570 10561 10554 10547 10541 10541 10539 10532 10526 10522 10517 10513 10508 10503 10499 10495
10689 10692 10694 10697 10700 10703 10708 10712 10714 10717 10720 10723 10725 10727 10729 10731 10732 10733 10734 10735 10736 10736 10737 10738 10737 10737 10736 10736 10735 10734 10734 10732 10731 10729 10727 10725 10722 10720 10718 10715 10713 10710 10706 10703 10699 10694 10690 10685 10681 10677 10673 10669 10664 10660 10655 10650 10645 10640 10636 10632 10628 10624 10620 10616 10612 10607 10603 10598 10593 10586 10578 10570 10561 10553 10546 10538 10534 10535 10531 10523 10518 10513 10506 10501 10495 10490 10485 10481
10687 10691 10693 10695 10698 10703 10708 10711 10714 10716 10719 10721 10723 10725 10727 10729 10730 10731 10732 10733 10734 10734 10735 10735 10734 10734 10734 10733 10733 10732 10731 10729 10727 10726 10723 10721 10719 10716 10714 10711 10708 10705 10701 10697 10693 10688 10684 10680 10676 10672 10668 10663 10659 10655 10650 10645 10641 10637 10633 10629 10625 10621 10618 10613 10608 10603 10598 10593 10587 10580 10571 10561 10551 10545 10539 10530 10526 10526 10521 10515 10509 10502 10495 10489 10483 10477 10472 10466
10685 10689 10692 10694 10698 10702 10706 10709 10712 10715 10717 10719 10721 10724 10725 10726 10727 10728 10729 10731 10731 10732 10732 10732 10732 10732 10731 10731 10730 10729 10727 10726 10724 10722 10720 10718 10715 10712 10710 10707 10703 10700 10695 10691 10687 10683 10679 10675 10671 10667 10663 10659 10655 10651 10647 10643 10639 10635 10630 10626 10621 10618 10615 10609 10604 10598 10592 10587 10582 10573 10562 10551 10540 10537 10532 10521 10518 10516 10511 10505 10498 10490 10483 10476 10470 10464 10458 10452
10685 10688 10691 10693 10696 10701 10705 10708 10710 10713 10715 10717 10719 10721 10723 10724 10725 10726 10727 10729 10729 10729 10730 10730 10730 10730 10729 10729 10727 10726 10724 10722 10721 10719 10717 10714 10711 10709 10706 10702 10698 10694 10690 10686 10683 10679 10675 10671 10667 10663 10659 10656 10652 10649 10645 10640 10636 10631 10627 10622 10617 10614 10611 10605 10599 10593 10587 10581 10576 10567 10555 10540 10529 10528 10524 10515 10511 10507 10500 10494 10485 10477 10470 10463 10458 10451 10445 10439
10684 10687 10689 10692 10695 10699 10703 10706 10709 10711 10713 10715 10717 10719 10720 10722 10723 10724 10725 10726 10727 10727 10727 10728 10728 10727 10727 10725 10724 10723 10721 10719 10718 10715 10713 10710 10708 10705 10701 10697 10694 10690 10686 10682 10678 10675 10671 10667 10664 10661 10658 10654 10650 10646 10642 10637 10633 10628 10622 10617 10613 10609 10606 10600 10594 10588 10582 10576 10570 10563 10548 10530 10521 10519 10516 10512 10506 10499 10491 10482 10474 10466 10458 10452 10445 10439 10432 10425
10683 10686 10688 10691 10694 10697 10701 10704 10707 10710 10712 10714 10716 10717 10719 10720 10721 10722 10723 10724 10725 10725 10726 10726 10725 10725 10724 10722 10721 10720 10718 10716 10714 10712 10709 10706 10703 10700 10696 10693 10690 10686 10682 10679 10675 10672 10669 10666 10663 10659 10656 10652 10647 10642 10638 10634 10629 10624 10618 10612 10606 10603 10600 10595 10589 10582 10576 10571 10565 10558 10543 10522 10513 10512 10510 10507 10499 10490 10482 10471 10462 10454 10447 10440 10433 10425 10419 10412
10681 10685 10688 10690 10693 10696 10699 10702 10705 10708 10711 10713 10714 10716 10717 10718 10719 10720 10721 10722 10723 10723 10724 10723 10723 10722 10721 10719 10718 10717 10715 10713 10711 10708 10705 10702 10699 10696 10693 10690 10686 10683 10679 10676 10673 10670 10667 10664 10660 10657 10652 10648 10644 10639 10635 10630 10625 10620 10615 10608 10601 10594 10592 10589 10583 10576 10570 10564 10558 10552 10539 10518 10506 10503 10501 10496 10488 10479 10471 10461 10451 10443 10436 10428 10420 10412 10405 10400
10680 10683 10687 10690 10693 10696 10698 10700 10703 10706 10709 10711 10712 10714 10715 10716 10717 10718 10719 10720 10721 10721 10721 10720 10720 10719 10718 10717 10716 10714 10712 10710 10707 10704 10701 10698 10696 10692 10689 10686 10683 10680 10677 10675 10672 10669 10665 10661 10658 10654 10650 10645 10641 10636 10631 10627 10621 10615 10610 10605 10598 10589 10582 10581 10577 10569 10562 10556 10548 10542 10532 10514 10500 10495 10490 10484 10477 10468 10459 10449 10440 10432 10424 10415 10406 10399 10392 10386
10680 10682 10685 10689 10692 10695 10697 10700 10702 10704 10706 10708 10710 10712 10713 10714 10715 10716 10718 10718 10719 10719 10718 10718 10717 10716 10716 10715 10713 10711 10709 10706 10703 10701 10698 10695 10692 10690 10687 10684 10681 10678 10676 10673 10670 10667 10663 10659 10655 10651 10647 10642 10637 10632 10627 10622 10617 10611 10604 10598 10594 10587 10577 10572 10570 10564 10555 10548 10540 10531 10522 10508 10496 10488 10480 10474 10466 10457 10448 10438 10430 10421 10412 10403 10395 10387 10380 10373
10679 10682 10684 10687 10690 10694 10696 10699 10701 10703 10705 10707 10708 10710 10711 10712 10713 10715 10716 10716 10716 10716 10716 10715 10715 10714 10714 10712 10710 10707 10705 10702 10699 10697 10694 10692 10689 10687 10684 10682 10679 10677 10674 10671 10667 10663 10660 10656 10652 10648 10643 10639 10633 10628 10622 10617 10612 10607 10601 10594 10588 10583 10575 10565 10561 10557 10549 10541 10532 10522 10512 10501 10492 10482 10472 10464 10455 10446 10437 10426 10417 10408 10399 10390 10383 10375 10367 10359
10678 10681 10684 10686 10689 10692 10694 10697 10699 10701 10703 10705 10707 10708 10709 10711 10712 10713 10714 10714 10714 10714 10714 10713 10713 10712 10711 10709 10706 10704 10701 10699 10696 10694 10692 10689 10687 10685 10683 10681 10678 10675 10672 10668 10665 10661 10657 10653 10649 10645 10640 10635 10631 10625 10619 10613 10607 10601 10596 10590 10582 10577 10573 10563 10556 10552 10544 10535 10525 10514 10502 10494 10486 10475 10464 10455 10445 10435 10425 10414 10404 10394 10385 10376 10368 10361 10352 10344
10678 10681 10683 10686 10688 10690 10693 10695 10697 10699 10702 10704 10705 10707 10708 10709 10710 10711 10711 10711 10712 10712 10712 10711 10710 10709 10707 10705 10703 10701 10698 10696 10694 10691 10689 10687 10685 10683 10681 10679 10676 10673 10670 10666 10663 10659 10655 10651 10646 10642 10637 10632 10628 10623 10617 10611 10605 10599 10592 10586 10578 10570 10566 10561 10554 10549 10541 10531 10521 10509 10495 10487 10479 10465 10453 10444 10434 10424 10413 10403 10392 10381 10371 10362 10354 10346 10338 10330
10676 10680 10683 10685 10687 10689 10691 10693 10696 10698 10700 10702 10704 10706 10707 10708 10709 10709 10709 10710 10710 10710 10709 10708 10707 10706 10704 10702 10700 10698 10696 10694 10692 10690 10688 10686 10685 10682 10680 10677 10675 10671 10668 10664 10660 10656 10652 10648 10643 10638 10633 10628 10623 10618 10614 10608 10602 10596 10589 10584 10577 10567 10559 10554 10549 10545 10540 10529 10518 10506 10490 10481 10474 10460 10446 10435 10423 10413 10401 10389 10378 10367 10356 10347 10339 10331 10323 10315
10675 10678 10681 10684 10686 10688 10690 10692 10695 10697 10699 10701 10703 10704 10705 10706 10706 10707 10708 10708 10708 10707 10706 10705 10704 10702 10701 10699 10698 10696 10694 10692 10690 10688 10687 10685 10684 10681 10679 10676 10673 10669 10666 10662 10658 10654 10649 10645 10640 10635 10630 10624 10619 10613 10608 10603 10596 10591 10585 10579 10574 10566 10555 10548 10542 10538 10536 10528 10517 10505 10487 10477 10472 10458 10443 10430 10416 10403 10391 10379 10366 10354 10343 10332 10324 10316 10308 10301
10674 10677 10680 10682 10685 10687 10689 10691 10693 10696 10698 10700 10701 10702 10703 10704 10704 10705 10705 10706 10705 10705 10704 10702 10701 10700 10698 10697 10696 10694 10693 10691 10689 10688 10686 10684 10682 10680 10677 10673 10670 10666 10663 10659 10655 10651 10647 10642 10638 10633 10628 10622 10616 10610 10604 10599 10593 10587 10581 10574 10569 10563 10553 10544 10538 10531 10527 10524 10515 10503 10485 10470 10464 10451 10436 10423 10409 10395 10381 10367 10354 10341 10329 10318 10309 10300 10293 10286
10673 10675 10678 10681 10683 10686 10688 10690 10692 10695 10697 10698 10700 10701 10701 10702 10703 10703 10703 10703 10703 10702 10701 10700 10699 10698 10696 10695 10694 10693 10692 10690 10689 10687 10685 10683 10680 10677 10675 10671 10668 10664 10660 10656 10652 10648 10644 10640 10635 10630 10625 10619 10613 10607 10601 10595 10590 10584 10578 10572 10565 10560 10552 10541 10533 10525 10521 10519 10511 10500 10481 10464 10455 10443 10429 10415 10399 10385 10370 10355 10343 10330 10318 10307 10296 10287 10278 10271
10671 10674 10677 10679 10682 10684 10687 10689 10692 10694 10696 10697 10698 10699 10700 10700 10701 10701 10701 10701 10701 10700 10699 10698 10697 10696 10695 10694 10693 10692 10691 10690 10688 10686 10684 10681 10679 10676 10672 10669 10665 10661 10658 10654 10650 10646 10642 10638 10633 10628 10623 10617 10611 10604 10598 10591 10586 10581 10574 10568 10560 10555 10551 10543 10533 10521 10513 10511 10506 10496 10478 10460 10451 10437 10421 10408 10392 10376 10362 10347 10333 10320 10308 10296 10286 10276 10267 10259
10670 10673 10675 10678 10680 10683 10686 10688 10691 10693 10694 10695 10696 10697 10698 10699 10699 10700 10699 10699 10699 10698 10697 10697 10696 10695 10694 10693 10692 10692 10691 10689 10687 10685 10683 10680 10677 10674 10670 10667 10663 10660 10656 10652 10648 10644 10640 10636 10631 10626 10621 10615 10609 10603 10596 10588 10581 10576 10569 10563 10555 10547 10542 10539 10532 10520 10507 10500 10496 10492 10476 10454 10443 10432 10415 10401 10386 10370 10354 10338 10324 10310 10297 10286 10275 10265 10255 10247
10670 10672 10674 10677 10680 10682 10685 10687 10690 10691 10693 10694 10695 10696 10697 10698 10698 10698 10698 10697 10697 10696 10696 10695 10695 10694 10693 10692 10692 10691 10690 10688 10687 10684 10682 10679 10676 10672 10669 10665 10662 10659 10655 10651 10647 10643 10638 10634 10629 10624 10618 10613 10607 10600 10594 10587 10578 10571 10564 10558 10552 10544 10535 10528 10523 10516 10505 10495 10486 10483 10474 10454 10437 10426 10412 10397 10381 10365 10348 10332 10316 10302 10289 10277 10265 10255 10245 10236
10670 10672 10674 10677 10679 10682 10684 10686 10688 10690 10691 10693 10694 10695 10696 10696 10696 10696 10696 10696 10696 10696 10695 10694 10693 10693 10692 10692 10691 10690 10689 10687 10686 10683 10680 10677 10674 10671 10668 10664 10661 10658 10654 10650 10646 10641 10636 10631 10626 10621 10616 10610 10604 10598 10591 10585 10577 10570 10563 10556 10548 10541 10533 10522 10513 10506 10498 10490 10478 10469 10464 10450 10434 10419 10404 10389 10374 10357 10341 10325 10310 10296 10283 10270 10259 10248 10238 10228
10670 10672 10674 10677 10679 10681 10683 10685 10687 10689 10690 10692 10693 10694 10695 10695 10695 10695 10695 10695 10695 10694 10694 10693 10693 10692 10692 10691 10690 10689 10688 10686 10684 10681 10679 10676 10673 10670 10667 10663 10660 10656 10652 10648 10644 10639 10633 10629 10624 10618 10613 10607 10601 10595 10588 10582 10576 10570 10561 10554 10545 10536 10528 10518 10507 10496 10487 10479 10469 10459 10450 10438 10425 10413 10396 10380 10365 10349 10333 10318 10304 10290 10277 10264 10252 10242 10231 10221
10670 10672 10675 10677 10679 10681 10683 10685 10687 10688 10690 10691 10692 10693 10693 10693 10693 10694 10694 10694 10694 10693 10693 10692 10692 10692 10691 10690 10689 10688 10686 10684 10682 10679 10677 10674 10671 10668 10665 10662 10659 10655 10651 10646 10641 10636 10631 10626 10621 10615 10610 10604 10598 10593 10587 10581 10574 10567 10558 10550 10542 10533 10524 10514 10502 10490 10481 10475 10466 10454 10445 10430 10411 10398 10385 10369 10354 10340 10325 10310 10296 10283 10270 10257 10245 10234 10222 10212
10671 10673 10675 10677 10679 10681 10683 10685 10687 10688 10690 10690 10691 10692 10692 10692 10693 10693 10693 10693 10693 10693 10692 10692 10692 10691 10690 10689 10688 10686 10684 10682 10680 10678 10675 10672 10669 10665 10662 10660 10657 10654 10649 10644 10639 10634 10629 10623 10618 10613 10607 10602 10597 10591 10585 10578 10570 10563 10555 10546 10538 10529 10521 10511 10501 10490 10480 10472 10463 10449 10437 10427 10408 10387 10371 10357 10342 10328 10314 10299 10285 10272 10259 10246 10235 10224 10214 10204
10672 10674 10676 10678 10680 10682 10683 10685 10687 10688 10689 10689 10690 10691 10691 10692 10692 10692 10693 10693 10693 10692 10692 10692 10691 10691 10690 10688 10687 10685 10683 10680 10678 10675 10672 10669 10666 10663 10660 10657 10653 10650 10647 10642 10636 10630 10625 10621 10616 10611 10605 10598 10593 10587 10580 10573 10566 10559 10552 10545 10537 10529 10521 10514 10504 10492 10478 10466 10454 10438 10421 10410 10398 10381 10362 10347 10332 10316 10301 10286 10271 10258 10246 10235 10224 10214 10204 10194
10673 10675 10677 10679 10680 10682 10684 10685 10686 10687 10688 10688 10689 10690 10691 10691 10692 10692 10692 10692 10692 10692 10692 10692 10691 10690 10689 10687 10686 10684 10681 10679 10677 10674 10672 10669 10666 10662 10657 10651 10645 10640 10637 10634 10630 10626 10623 10619 10614 10609 10603 10596 10589 10582 10575 10568 10561 10556 10551 10548 10541 10533 10525 10517 10505 10488 10472 10457 10441 10424 10406 10389 10380 10370 10356 10338 10320 10302 10287 10274 10261 10249 10237 10225 10214 10203 10192 10181
10674 10676 10678 10680 10681 10683 10684 10685 10686 10686 10687 10688 10689 10690 10690 10691 10691 10692 10692 10692 10692 10692 10691 10691 10690 10689 10688 10686 10685 10683 10681 10678 10676 10673 10670 10667 10662 10658 10652 10647 10642 10637 10634 10632 10631 10628 10623 10618 10612 10607 10602 10596 10587 10578 10570 10563 10557 10551 10546 10543 10540 10537 10529 10517 10503 10482 10460 10443 10429 10417 10403 10387 10371 10359 10345 10329 10312 10296 10281 10267 10254 10241 10229 10217 10205 10192 10180 10169
10676 10677 10679 10680 10682 10683 10684 10684 10685 10686 10687 10688 10689 10689 10690 10691 10692 10692 10692 10692 10691 10691 10691 10690 10689 10688 10687 10686 10684 10682 10680 10677 10674 10671 10668 10664 10661 10658 10655 10653 10649 10645 10641 10637 10633 10627 10621 10615 10611 10606 10600 10594 10586 10579 10570 10562 10555 10548 10541 10534 10528 10523 10514 10501 10490 10475 10453 10436 10424 10412 10400 10386 10368 10352 10336 10322 10308 10292 10276 10260 10245 10231 10217 10203 10190 10177 10165 10154
10677 10678 10680 10681 10682 10683 10683 10684 10685 10686 10687 10688 10689 10690 10690 10691 10692 10692 10691 10691 10691 10691 10690 10690 10689 10688 10687 10685 10683 10681 10679 10676 10673 10671 10667 10665 10662 10660 10657 10653 10649 10644 10639 10633 10629 10626 10621 10615 10609 10603 10596 10589 10582 10575 10568 10559 10550 10540 10530 10520 10507 10494 10485 10477 10470 10462 10447 10432 10421 10409 10394 10380 10365 10348 10333 10318 10302 10286 10268 10251 10235 10218 10201 10187 10174 10163 10152 10142
10678 10679 10680 10681 10681 10682 10683 10684 10685 10686 10687 10688 10689 10690 10691 10691 10691 10691 10691 10691 10691 10690 10690 10689 10688 10687 10686 10684 10682 10680 10678 10675 10673 10670 10667 10665 10662 10658 10654 10650 10646 10641 10636 10630 10625 10622 10619 10613 10606 10598 10590 10582 10574 10565 10558 10549 10540 10530 10520 10509 10498 10486 10475 10465 10454 10446 10436 10422 10412 10403 10388 10372 10358 10343 10329 10314 10296 10279 10261 10242 10223 10207 10192 10179 10167 10156 10145 10134
10678 10679 10680 10680 10681 10682 10683 10684 10686 10687 10687 10688 10689 10690 10691 10691 10691 10691 10691 10691 10691 10690 10689 10689 10687 10686 10684 10683 10681 10679 10677 10674 10672 10669 10667 10664 10660 10657 10653 10649 10645 10641 10636 10630 10623 10617 10612 10606 10599 10591 10583 10575 10568 10560 10552 10544 10536 10526 10516 10505 10497 10489 10481 10471 10459 10448 10437 10420 10405 10396 10384 10367 10354 10340 10324 10308 10291 10272 10253 10234 10217 10204 10192 10179 10166 10154 10143 10132
10678 10679 10679 10680 10681 10682 10684 10685 10686 10687 10688 10689 10690 10690 10690 10691 10691 10691 10691 10691 10690 10690 10689 10688 10687 10685 10683 10682 10680 10678 10676 10673 10671 10668 10666 10663 10659 10656 10652 10648 10644 10640 10635 10629 10622 10614 10607 10601 10593 10585 10578 10571 10564 10556 10548 10540 10532 10523 10515 10506 10496 10484 10474 10470 10465 10455 10444 10426 10402 10385 10376 10364 10349 10333 10316 10300 10285 10267 10247 10231 10217 10205 10192 10179 10166 10152 10139 10127
10678 10678 10679 10680 10681 10683 10684 10685 10686 10687 10688 10689 10690 10690 10690 10691 10691 10691 10691 10690 10690 10689 10688 10687 10686 10684 10683 10681 10679 10677 10675 10672 10670 10667 10664 10661 10658 10654 10651 10647 10642 10638 10633 10627 10620 10613 10604 10597 10590 10582 10575 10567 10559 10551 10543 10535 10527 10520 10513 10505 10495 10485 10471 10459 10451 10442 10433 10423 10405 10385 10370 10357 10340 10324 10310 10295 10278 10261 10247 10233 10219 10204 10190 10177 10162 10146 10131 10116
10678 10678 10680 10681 10682 10683 10684 10685 10686 10687 10689 10689 10690 10690 10690 10690 10691 10691 10690 10690 10690 10689 10688 10687 10685 10683 10682 10680 10678 10676 10674 10671 10669 10666 10662 10659 10656 10653 10649 10645 10640 10636 10631 10625 10618 10611 10603 10595 10588 10581 10573 10563 10554 10546 10539 10530 10523 10515 10507 10498 10488 10479 10466 10449 10434 10424 10414 10408 10403 10389 10369 10352 10336 10321 10305 10288 10270 10257 10246 10233 10216 10199 10183 10168 10154 10139 10124 10111
10678 10679 10680 10681 10682 10684 10685 10686 10687 10688 10689 10689 10690 10690 10690 10690 10690 10690 10690 10690 10689 10688 10687 10686 10684 10682 10681 10679 10677 10675 10672 10670 10667 10664 10661 10658 10654 10650 10646 10642 10638 10633 10628 10623 10616 10609 10602 10594 10586 10578 10569 10561 10553 10545 10538 10531 10525 10517 10507 10497 10484 10471 10459 10444 10428 10418 10409 10398 10388 10378 10364 10349 10334 10318 10300 10282 10267 10253 10239 10224 10209 10193 10176 10160 10148 10136 10122 10108
10678 10680 10681 10682 10683 10684 10685 10686 10687 10688 10689 10689 10690 10690 10690 10690 10690 10690 10690 10689 10689 10688 10686 10685 10683 10682 10680 10678 10676 10673 10671 10668 10665 10662 10659 10656 10652 10648 10644 10639 10635 10631 10626 10621 10615 10608 10601 10593 10585 10577 10569 10561 10553 10545 10539 10532 10524 10516 10505 10495 10485 10475 10465 10454 10438 10422 10409 10395 10377 10365 10358 10347 10332 10314 10296 10281 10267 10253 10237 10221 10207 10193 10178 10163 10148 10134 10120 10106
10679 10680 10681 10682 10684 10685 10686 10687 10687 10688 10689 10689 10690 10690 10690 10690 10690 10690 10690 10689 10688 10687 10686 10684 10682 10681 10679 10677 10675 10673 10670 10667 10664 10661 10658 10654 10650 10646 10642 10637 10632 10628 10623 10618 10614 10608 10601 10593 10585 10577 10570 10561 10551 10542 10536 10529 10519 10509 10500 10490 10480 10471 10462 10455 10446 10429 10412 10399 10383 10365 10351 10338 10325 10311 10297 10283 10270 10255 10240 10225 10209 10193 10178 10162 10146 10130 10115 10101
10679 10680 10681 10683 10684 10685 10686 10687 10688 10689 10689 10689 10690 10690 10690 10690 10690 10690 10689 10688 10687 10686 10685 10683 10682 10680 10678 10676 10674 10671 10669 10666 10663 10660 10656 10653 10649 10644 10640 10635 10630 10625 10620 10615 10611 10606 10600 10593 10585 10576 10567 10558 10551 10543 10535 10526 10517 10507 10497 10486 10476 10465 10454 10444 10436 10425 10413 10404 10394 10376 10354 10335 10322 10310 10299 10285 10270 10256 10242 10227 10211 10193 10174 10158 10143 10129 10113 10098
10680 10681 10682 10684 10685 10685 10686 10687 10688 10689 10689 10689 10690 10690 10690 10690 10689 10689 10689 10688 10687 10685 10684 10682 10681 10679 10677 10675 10673 10670 10667 10664 10661 10658 10655 10651 10647 10643 10638 10633 10628 10622 10616 10610 10605 10601 10597 10593 10587 10580 10572 10563 10556 10547 10535 10523 10514 10504 10494 10483 10472 10461 10450 10438 10427 10418 10408 10397 10389 10378 10360 10343 10329 10316 10302 10287 10272 10257 10241 10225 10208 10191 10174 10158 10142 10127 10112 10097
10681 10682 10683 10684 10686 10686 10687 10687 10688 10689 10689 10689 10689 10689 10689 10689 10689 10689 10688 10687 10686 10684 10683 10681 10679 10678 10676 10673 10671 10669 10666 10663 10660 10657 10653 10650 10646 10641 10637 10631 10626 10620 10613 10607 10600 10594 10589 10585 10581 10577 10573 10567 10558 10548 10537 10524 10511 10500 10489 10479 10470 10460 10451 10441 10431 10421 10408 10392 10381 10374 10363 10349 10335 10322 10307 10292 10277 10261 10243 10224 10205 10187 10171 10154 10139 10124 10110 10096
10681 10682 10683 10685 10686 10687 10687 10687 10688 10688 10689 10689 10689 10689 10689 10689 10688 10688 10687 10686 10685 10683 10682 10680 10678 10676 10674 10672 10670 10667 10664 10662 10659 10655 10651 10648 10644 10639 10635 10630 10624 10618 10612 10605 10597 10590 10583 10577 10571 10565 10558 10551 10543 10534 10526 10517 10506 10497 10487 10478 10471 10464 10454 10443 10432 10421 10410 10393 10376 10364 10357 10348 10338 10328 10315 10298 10280 10263 10245 10226 10206 10187 10168 10149 10133 10119 10106 10093
10682 10682 10684 10685 10686 10687 10687 10688 10688 10688 10688 10689 10689 10689 10688 10688 10688 10687 10686 10685 10683 10682 10681 10679 10677 10675 10673 10671 10668 10666 10663 10660 10657 10653 10650 10646 10642 10638 10633 10628 10623 10617 10611 10605 10597 10589 10581 10573 10565 10558 10550 10542 10534 10526 10518 10511 10503 10495 10487 10480 10473 10465 10454 10443 10432 10421 10411 10400 10384 10367 10354 10345 10336 10324 10311 10297 10279 10260 10240 10222 10203 10185 10167 10150 10134 10119 10106 10093
10682 10683 10684 10685 10686 10686 10687 10687 10688 10688 10688 10688 10688 10688 10688 10687 10687 10686 10685 10684 10682 10681 10679 10677 10676 10674 10672 10669 10667 10664 10662 10658 10655 10652 10648 10644 10640 10636 10632 10627 10622 10616 10610 10604 10598 10590 10581 10572 10564 10556 10549 10542 10535 10527 10518 10510 10503 10495 10487 10480 10472 10463 10453 10442 10431 10419 10409 10402 10393 10378 10360 10345 10330 10315 10303 10291 10276 10255 10234 10216 10200 10185 10170 10156 10141 10125 10110 10095
10682 10683 10684 10684 10685 10686 10687 10687 10687 10687 10687 10687 10687 10687 10687 10686 10686 10685 10684 10682 10681 10680 10678 10676 10674 10672 10670 10668 10665 10663 10660 10657 10653 10650 10646 10643 10639 10634 10630 10625 10620 10615 10610 10604 10597 10590 10582 10574 10565 10557 10549 10542 10534 10528 10520 10512 10504 10496 10487 10479 10470 10461 10452 10442 10431 10422 10410 10396 10384 10373 10359 10340 10323 10312 10301 10286 10268 10249 10232 10217 10204 10192 10178 10161 10143 10125 10109 10094
10682 10683 10684 10684 10685 10686 10686 10687 10687 10686 10686 10686 10686 10686 10686 10685 10684 10684 10682 10681 10680 10678 10677 10675 10673 10671 10668 10666 10664 10661 10658 10654 10651 10647 10644 10640 10636 10632 10628 10624 10619 10614 10609 10603 10596 10590 10583 10575 10567 10559 10550 10543 10535 10529 10522 10514 10505 10496 10488 10480 10470 10460 10450 10441 10433 10422 10407 10391 10378 10368 10355 10338 10322 10309 10295 10278 10264 10253 10242 10226 10209 10193 10176 10158 10140 10124 10108 10093
10682 10683 10683 10684 10685 10685 10686 10686 10686 10686 10686 10685 10685 10685 10685 10684 10683 10682 10681 10680 10678 10677 10675 10673 10671 10669 10667 10665 10662 10659 10656 10652 10649 10645 10642 10638 10634 10630 10626 10622 10618 10613 10607 10602 10595 10589 10583 10576 10569 10560 10552 10545 10537 10529 10522 10514 10505 10498 10491 10482 10470 10460 10451 10443 10432 10418 10405 10395 10383 10369 10355 10342 10326 10306 10287 10276 10268 10259 10246 10229 10210 10188 10170 10154 10140 10124 10109 10094
10682 10682 10683 10683 10684 10684 10685 10685 10685 10685 10684 10684 10684 10684 10683 10683 10682 10681 10680 10678 10677 10675 10674 10672 10670 10668 10665 10663 10660 10657 10654 10651 10647 10643 10640 10636 10632 10629 10625 10620 10616 10611 10606 10600 10594 10587 10582 10576 10569 10562 10554 10545 10537 10530 10522 10514 10506 10500 10492 10482 10472 10462 10452 10440 10426 10413 10404 10396 10383 10368 10353 10339 10322 10304 10290 10280 10270 10256 10239 10223 10207 10189 10171 10155 10140 10125 10110 10096
10681 10682 10682 10683 10683 10683 10684 10684 10683 10683 10683 10683 10683 10682 10682 10681 10681 10679 10678 10677 10675 10674 10672 10670 10668 10666 10664 10661 10659 10656 10652 10649 10646 10642 10638 10635 10631 10627 10623 10619 10614 10609 10604 10598 10592 10586 10581 10575 10569 10563 10554 10546 10537 10528 10520 10513 10508 10501 10491 10482 10473 10461 10449 10438 10428 10416 10402 10387 10373 10362 10349 10336 10323 10310 10296 10279 10262 10246 10230 10216 10203 10190 10176 10160 10144 10130 10114 10097